W7SF Weather Reports


Display with metric or nautical units.
time (UTC)temp
F
wind
direction
speed
MPH
gust
MPH
rain 1hr
in
rain 24hr
in
rain mn
in
humidity
%
barometer
mb
20260906152845 84 60 5.0 11.0 0.00 0.00 0.00 79 1016.3
20260906152603 83 22 4.0 11.0 0.00 0.00 0.00 80 1016.5
20260906151845 83 38 6.0 11.0 0.00 0.00 0.00 80 1016.4
20260906151825 83 34 6.0 11.0 0.00 0.00 0.00 80 1016.4
20260906150844 82 65 4.0 10.0 0.00 0.00 0.00 80 1016.3
20260906150344 82 55 6.0 10.0 0.00 0.00 0.00 82 1016.3
20260906145844 82 64 6.0 9.0 0.00 0.00 0.00 82 1016.3
20260906145345 81 81 2.0 8.0 0.00 0.00 0.00 82 1016.2
20260906144844 81 67 5.0 8.0 0.00 0.00 0.00 84 1016.4
20260906144344 81 32 6.0 8.0 0.00 0.00 0.00 84 1016.6
20260906143845 80 36 3.0 7.0 0.00 0.00 0.00 84 1016.6
20260906143345 80 84 3.0 7.0 0.00 0.00 0.00 85 1016.5
20260906142847 80 55 2.0 9.0 0.00 0.00 0.00 86 1016.8
20260906142609 80 24 6.0 9.0 0.00 0.00 0.00 88 1016.4
20260906141844 79 66 3.0 7.0 0.00 0.00 0.00 88 1016.5
20260906141345 79 62 2.0 7.0 0.00 0.00 0.00 88 1016.3
20260906140845 79 58 4.0 7.0 0.00 0.00 0.00 89 1016.4
20260906140344 78 41 3.0 7.0 0.00 0.00 0.00 90 1016.3
20260906135844 78 60 3.0 7.0 0.00 0.00 0.00 90 1016.3
20260906135344 77 77 4.0 7.0 0.00 0.00 0.00 91 1016.2
20260906134845 77 81 3.0 8.0 0.00 0.00 0.00 91 1016.3
20260906134345 77 63 4.0 10.0 0.00 0.00 0.00 92 1016.1
20260906133844 76 98 4.0 10.0 0.00 0.00 0.00 93 1016.1
20260906133345 76 101 4.0 10.0 0.00 0.00 0.00 93 1016.0
20260906132845 76 75 4.0 10.0 0.00 0.00 0.00 94 1016.2
20260906132344 76 45 4.0 9.0 0.00 0.00 0.00 94 1016.0
20260906131844 75 70 5.0 9.0 0.00 0.00 0.00 95 1015.9
20260906131344 75 77 4.0 9.0 0.00 0.00 0.00 95 1015.9
20260906130844 75 76 6.0 9.0 0.00 0.00 0.00 95 1015.8
20260906130345 75 92 3.0 9.0 0.00 0.00 0.00 95 1015.8
20260906125845 75 78 5.0 6.0 0.00 0.00 0.00 95 1015.8
20260906125345 75 56 3.0 6.0 0.00 0.00 0.00 95 1016.1
20260906125109 74 63 2.0 4.0 0.00 0.00 0.00 95 1016.0
20260906124344 74 62 2.0 4.0 0.00 0.00 0.00 95 1015.8
20260906123847 74 56 1.0 6.0 0.00 0.00 0.00 95 1015.7
20260906123347 74 61 2.0 6.0 0.00 0.00 0.00 95 1015.9
20260906122847 74 51 3.0 7.0 0.00 0.00 0.00 95 1015.6
20260906122347 74 35 4.0 7.0 0.00 0.00 0.00 95 1015.8
20260906121847 74 35 3.0 7.0 0.00 0.00 0.00 95 1015.7
20260906121347 74 13 3.0 4.0 0.00 0.00 0.00 95 1015.8
20260906120847 74 40 1.0 3.0 0.00 0.00 0.00 95 1015.7
20260906120347 74 40 2.0 6.0 0.00 0.00 0.00 95 1015.5
20260906115847 74 39 1.0 7.0 0.00 0.00 0.00 95 1015.5
20260906115347 74 37 4.0 7.0 0.00 0.00 0.00 95 1015.6
20260906114847 74 34 4.0 6.0 0.00 0.00 0.00 95 1015.4
20260906114335 74 29 3.0 6.0 0.00 0.00 0.00 95 1015.4
20260906113835 74 30 4.0 6.0 0.00 0.00 0.00 95 1015.3
20260906113335 74 30 4.0 6.0 0.00 0.00 0.00 95 1015.4
20260906112835 74 47 4.0 6.0 0.00 0.00 0.00 95 1015.4
20260906112557 74 38 3.0 3.0 0.00 0.00 0.00 95 1015.2
20260906111835 74 42 1.0 3.0 0.00 0.00 0.00 95 1015.1
20260906111332 74 35 2.0 3.0 0.00 0.00 0.00 95 1015.2
20260906110832 74 48 3.0 3.0 0.00 0.00 0.00 95 1015.4
20260906110332 74 74 1.0 4.0 0.00 0.00 0.00 95 1015.3
20260906105832 74 67 1.0 4.0 0.00 0.00 0.00 95 1015.4
20260906105332 74 57 2.0 6.0 0.00 0.00 0.00 95 1015.3
20260906104833 74 69 2.0 6.0 0.00 0.00 0.00 95 1015.3
20260906104540 74 66 2.0 4.0 0.00 0.00 0.00 95 1015.1
20260906103821 75 70 2.0 4.0 0.00 0.00 0.00 95 1015.0
20260906103544 75 66 3.0 3.0 0.00 0.00 0.00 95 1015.4
20260906102821 75 67 2.0 6.0 0.00 0.00 0.00 95 1015.3
20260906102321 75 49 2.0 6.0 0.00 0.00 0.00 95 1015.1
20260906102038 75 49 2.0 4.0 0.00 0.00 0.00 95 1015.1
20260906101321 75 58 2.0 4.0 0.00 0.00 0.00 95 1015.0
20260906100808 75 40 1.0 3.0 0.00 0.00 0.00 95 1014.9
20260906100308 75 53 1.0 4.0 0.00 0.00 0.00 95 1014.7
20260906095757 75 55 3.0 4.0 0.00 0.00 0.00 95 1014.7
20260906095257 75 58 1.0 4.0 0.00 0.00 0.00 95 1014.8
20260906094757 75 42 2.0 6.0 0.00 0.00 0.00 95 1014.9
20260906094257 75 40 2.0 6.0 0.00 0.00 0.00 95 1014.6
20260906093757 75 58 2.0 4.0 0.00 0.00 0.00 94 1014.9
20260906093514 75 58 2.0 6.0 0.00 0.00 0.00 94 1014.7
20260906092758 75 22 3.0 6.0 0.00 0.00 0.00 94 1014.5
20260906092506 75 45 4.0 6.0 0.00 0.00 0.00 94 1014.6
20260906091745 75 36 3.0 4.0 0.00 0.00 0.00 94 1014.4
20260906091245 76 37 3.0 6.0 0.00 0.00 0.00 94 1014.3
20260906090744 76 51 2.0 7.0 0.00 0.00 0.00 94 1014.2
20260906090244 76 48 2.0 7.0 0.00 0.00 0.00 93 1014.2
20260906085744 76 36 3.0 6.0 0.00 0.00 0.00 93 1014.2
20260906085244 76 44 3.0 6.0 0.00 0.00 0.00 93 1014.4
20260906084744 76 36 4.0 6.0 0.00 0.00 0.00 93 1013.8
20260906084244 76 31 4.0 6.0 0.00 0.00 0.00 92 1013.9
20260906084002 76 10 2.0 4.0 0.00 0.00 0.00 92 1014.2
20260906083244 76 350 1.0 4.0 0.00 0.00 0.00 92 1014.0
20260906083012 76 352 3.0 4.0 0.00 0.00 0.00 92 1014.2
20260906082245 76 2 2.0 4.0 0.00 0.00 0.00 92 1013.9
20260906081744 76 10 1.0 6.0 0.00 0.00 0.00 91 1013.8
20260906081503 76 22 3.0 6.0 0.00 0.00 0.00 91 1014.0
20260906080747 76 38 2.0 4.0 0.00 0.00 0.00 91 1014.0
20260906080247 76 15 2.0 4.0 0.00 0.00 0.00 91 1014.0
20260906080237 77 29 2.0 4.0 0.00 0.00 0.00 91 1013.9
20260906075247 77 29 1.0 4.0 0.00 0.00 0.00 90 1013.8
20260906074747 77 25 3.0 4.0 0.00 0.00 0.00 90 1014.0
20260906074503 77 41 1.0 3.0 0.00 0.00 0.00 90 1013.9
20260906073747 77 41 2.0 4.0 0.00 0.00 0.00 89 1013.8
20260906073233 77 32 2.0 6.0 0.00 0.00 0.00 89 1013.9
20260906072732 77 26 2.0 6.0 0.00 0.00 0.00 89 1014.0
20260906072232 78 41 3.0 6.0 0.00 0.00 0.00 88 1014.0
20260906071733 78 31 4.0 4.0 0.00 0.00 0.00 88 1014.0
20260906071236 78 44 2.0 4.0 0.00 0.00 0.00 87 1014.0
20260906070735 78 41 2.0 4.0 0.00 0.00 0.00 87 1014.2
20260906070235 78 41 1.0 2.0 0.00 0.00 0.00 87 1014.0
20260906070000 78 41 0.0 2.0 0.00 0.00 0.00 86 1014.2
20260906065232 78 41 1.0 3.0 0.00 0.00 0.00 86 1014.0
20260906064732 78 41 1.0 3.0 0.00 0.00 0.00 86 1014.3
20260906064233 78 41 1.0 3.0 0.00 0.00 0.00 86 1014.2
20260906063733 78 41 1.0 2.0 0.00 0.00 0.00 86 1014.3
20260906063233 79 41 0.0 1.0 0.00 0.00 0.00 85 1014.2
20260906062944 79 41 0.0 2.0 0.00 0.00 0.00 85 1014.3
20260906062208 79 41 0.0 2.0 0.00 0.00 0.00 85 1014.3
20260906061927 79 41 1.0 2.0 0.00 0.00 0.00 85 1014.2
20260906061208 79 41 1.0 2.0 0.00 0.00 0.00 84 1014.5
20260906060709 79 41 1.0 2.0 0.00 0.00 0.00 84 1014.0
20260906060209 79 40 1.0 2.0 0.00 0.00 0.00 84 1014.2
20260906055656 79 40 1.0 2.0 0.00 0.00 0.00 84 1014.3
20260906055423 79 40 1.0 1.0 0.00 0.00 0.00 84 1014.2
20260906054656 79 40 1.0 2.0 0.00 0.00 0.00 83 1014.4
20260906054156 79 40 1.0 2.0 0.00 0.00 0.00 83 1014.3
20260906053657 79 39 1.0 2.0 0.00 0.00 0.00 83 1014.3
20260906053157 80 39 2.0 3.0 0.00 0.00 0.00 82 1014.2
20260906052656 80 39 1.0 3.0 0.00 0.00 0.00 82 1014.3
20260906052157 80 38 2.0 3.0 0.00 0.00 0.00 81 1014.6
20260906051657 80 38 2.0 3.0 0.00 0.00 0.00 81 1014.3
20260906051423 80 31 2.0 3.0 0.00 0.00 0.00 81 1014.3
20260906050645 80 33 2.0 3.0 0.00 0.00 0.00 81 1014.4
20260906050145 80 28 2.0 3.0 0.00 0.00 0.00 81 1014.3
20260906045645 80 11 2.0 3.0 0.00 0.00 0.00 81 1014.0
20260906045145 80 32 2.0 3.0 0.00 0.00 0.00 82 1013.8
20260906044644 80 24 1.0 2.0 0.00 0.00 0.00 82 1014.0
20260906044147 80 24 1.0 2.0 0.00 0.00 0.00 83 1014.0
20260906043648 80 24 1.0 2.0 0.00 0.00 0.00 83 1014.2
20260906043136 80 24 1.0 2.0 0.00 0.00 0.00 83 1014.2
20260906042903 80 24 2.0 2.0 0.00 0.00 0.00 83 1014.0
20260906042135 80 24 0.0 2.0 0.00 0.00 0.00 83 1014.0
20260906041635 80 24 0.0 2.0 0.00 0.00 0.00 83 1014.0
20260906041135 80 24 2.0 3.0 0.00 0.00 0.00 82 1014.0
20260906040636 80 24 1.0 3.0 0.00 0.00 0.00 82 1014.2
20260906040135 81 24 2.0 3.0 0.00 0.00 0.00 81 1013.7
20260906035635 81 24 1.0 4.0 0.00 0.00 0.00 81 1013.6
20260906035135 81 18 2.0 4.0 0.00 0.00 0.00 81 1013.8
20260906034635 81 2 2.0 2.0 0.00 0.00 0.00 81 1013.6
20260906034135 81 3 2.0 2.0 0.00 0.00 0.00 80 1013.5
20260906033635 81 3 1.0 4.0 0.00 0.00 0.00 80 1013.7
20260906033135 82 4 2.0 4.0 0.00 0.00 0.00 80 1013.6
20260906033117 82 17 1.0 4.0 0.00 0.00 0.00 79 1013.5
20260906032135 82 9 2.0 4.0 0.00 0.00 0.00 79 1013.6
20260906031635 82 7 2.0 4.0 0.00 0.00 0.00 78 1013.5
20260906031135 83 351 3.0 4.0 0.00 0.00 0.00 77 1013.5
20260906030636 83 16 3.0 4.0 0.00 0.00 0.00 76 1013.5
20260906030136 83 76 1.0 3.0 0.00 0.00 0.00 75 1013.5
20260906025636 83 76 2.0 2.0 0.00 0.00 0.00 75 1013.4
20260906025135 83 76 2.0 4.0 0.00 0.00 0.00 76 1013.4
20260906024634 83 76 1.0 4.0 0.00 0.00 0.00 76 1013.5
20260906024133 83 76 1.0 3.0 0.00 0.00 0.00 77 1013.2
20260906023634 83 76 2.0 3.0 0.00 0.00 0.00 77 1013.2
20260906023133 83 76 2.0 2.0 0.00 0.00 0.00 77 1013.0
20260906022849 83 76 0.0 3.0 0.00 0.00 0.00 77 1013.0
20260906022133 83 76 1.0 3.0 0.00 0.00 0.00 77 1013.0
20260906021633 82 76 1.0 2.0 0.00 0.00 0.00 78 1013.1
20260906021133 82 76 0.0 2.0 0.00 0.00 0.00 79 1012.8
20260906020633 82 76 0.0 2.0 0.00 0.00 0.00 79 1012.9
20260906020133 82 76 1.0 2.0 0.00 0.00 0.00 79 1012.6
20260906015630 82 76 1.0 2.0 0.00 0.00 0.00 80 1012.9
20260906015131 81 77 0.0 0.0 0.00 0.00 0.00 81 1012.6
20260906014631 81 77 0.0 0.0 0.00 0.00 0.00 81 1012.6
20260906014118 81 77 0.0 0.0 0.00 0.00 0.00 82 1012.5
20260906013606 81 77 0.0 0.0 0.00 0.00 0.00 82 1012.5
20260906013330 82 77 0.0 0.0 0.00 0.00 0.00 82 1012.5
20260906012829 82 77 0.0 1.0 0.00 0.00 0.00 82 1012.3
20260906012106 82 77 0.0 1.0 0.00 0.00 0.00 80 1012.3
20260906011607 82 77 0.0 1.0 0.00 0.00 0.00 80 1012.4
20260906011107 82 77 1.0 1.0 0.00 0.00 0.00 80 1012.3
20260906010832 82 77 0.0 0.0 0.00 0.00 0.00 79 1012.3
20260906010107 82 77 0.0 1.0 0.00 0.00 0.00 79 1012.4
20260906005830 82 77 0.0 1.0 0.00 0.00 0.00 79 1012.3
20260906005106 82 77 0.0 0.0 0.00 0.00 0.00 79 1012.2
20260906004606 82 77 0.0 0.0 0.00 0.00 0.00 78 1012.1
20260906004054 83 77 0.0 1.0 0.00 0.00 0.00 78 1012.1
20260906003541 83 77 0.0 2.0 0.00 0.00 0.00 78 1012.1
20260906003032 83 77 0.0 2.0 0.00 0.00 0.00 78 1012.1
20260906002533 84 77 1.0 1.0 0.00 0.00 0.00 77 1012.1
20260906002032 84 77 0.0 2.0 0.00 0.00 0.00 76 1012.3
20260906001532 85 77 1.0 3.0 0.00 0.00 0.00 75 1011.8
20260906001251 85 77 1.0 3.0 0.00 0.00 0.00 74 1012.2
20260906000533 85 64 1.0 6.0 0.00 0.00 0.00 72 1012.0
20260906000249 86 47 1.0 6.0 0.00 0.00 0.00 70 1012.2
20260905235533 86 37 4.0 6.0 0.00 0.00 0.00 67 1011.9
20260905235031 85 60 1.0 4.0 0.00 0.00 0.00 65 1012.0
20260905234531 85 34 1.0 1.0 0.00 0.00 0.00 66 1012.1
20260905234257 85 34 0.0 1.0 0.00 0.00 0.00 67 1012.1
20260905233532 85 34 0.0 3.0 0.00 0.00 0.00 68 1011.8
20260905233031 85 34 1.0 3.0 0.00 0.00 0.00 69 1012.0
20260905232532 86 114 2.0 6.0 0.00 0.00 0.00 68 1012.1
20260905232031 86 145 2.0 6.0 0.00 0.00 0.00 66 1012.0
20260905231531 86 15 2.0 6.0 0.00 0.00 0.00 61 1011.9
20260905231031 85 24 3.0 9.0 0.00 0.00 0.00 63 1012.4
20260905231011 85 331 3.0 11.0 0.00 0.00 0.00 63 1011.9
20260905230028 84 325 5.0 13.0 0.00 0.00 0.00 63 1012.2
20260905225528 85 11 7.0 16.0 0.00 0.00 0.00 66 1012.3
20260905225028 87 324 10.0 17.0 0.00 0.00 0.00 62 1012.4
20260905224527 88 348 6.0 19.0 0.00 0.00 0.00 58 1012.3
20260905224027 88 337 12.0 19.0 0.00 0.00 0.00 57 1012.6
20260905223527 88 333 12.0 21.0 0.00 0.00 0.00 57 1012.6
20260905223027 90 340 14.0 21.0 0.00 0.00 0.00 55 1012.7
20260905222528 92 324 6.0 21.0 0.00 0.00 0.00 52 1012.5
20260905222028 94 345 14.0 21.0 0.00 0.00 0.00 50 1012.5
20260905221528 98 10 7.0 10.0 0.00 0.00 0.00 49 1012.3
20260905221252 97 27 2.0 7.0 0.00 0.00 0.00 48 1011.8
20260905220527 96 36 2.0 8.0 0.00 0.00 0.00 50 1012.1
20260905220026 96 34 4.0 9.0 0.00 0.00 0.00 49 1012.1
20260905215527 96 1 4.0 13.0 0.00 0.00 0.00 49 1012.2
20260905215027 96 7 5.0 15.0 0.00 0.00 0.00 50 1012.2
20260905215012 96 1 6.0 15.0 0.00 0.00 0.00 49 1012.1
20260905214026 97 325 6.0 15.0 0.00 0.00 0.00 49 1012.3
20260905213529 97 40 4.0 10.0 0.00 0.00 0.00 50 1012.1
20260905213030 98 36 3.0 10.0 0.00 0.00 0.00 49 1012.0
20260905212529 98 333 5.0 10.0 0.00 0.00 0.00 47 1011.9
20260905212249 97 30 6.0 10.0 0.00 0.00 0.00 49 1012.2
20260905211527 97 9 7.0 11.0 0.00 0.00 0.00 48 1012.2
20260905211027 98 31 6.0 11.0 0.00 0.00 0.00 44 1012.2
20260905210526 100 326 2.0 7.0 0.00 0.00 0.00 43 1012.3
20260905210026 101 300 1.0 6.0 0.00 0.00 0.00 44 1012.4
20260905205746 101 281 2.0 6.0 0.00 0.00 0.00 44 1012.5
20260905205027 100 256 1.0 7.0 0.00 0.00 0.00 47 1012.5
20260905204750 99 282 2.0 7.0 0.00 0.00 0.00 47 1012.4
20260905204026 99 152 2.0 6.0 0.00 0.00 0.00 46 1012.5
20260905203526 98 296 2.0 7.0 0.00 0.00 0.00 46 1012.5
20260905203027 99 326 5.0 7.0 0.00 0.00 0.00 45 1012.5
20260905202527 99 275 3.0 8.0 0.00 0.00 0.00 47 1012.6
20260905202248 98 274 3.0 8.0 0.00 0.00 0.00 46 1013.0
20260905201527 97 29 1.0 6.0 0.00 0.00 0.00 47 1012.9
20260905201030 97 317 1.0 8.0 0.00 0.00 0.00 45 1012.9
20260905200529 99 320 3.0 9.0 0.00 0.00 0.00 42 1012.8
20260905200029 99 301 5.0 9.0 0.00 0.00 0.00 43 1013.2
20260905195529 99 349 4.0 8.0 0.00 0.00 0.00 42 1012.8
20260905195247 99 298 2.0 7.0 0.00 0.00 0.00 42 1013.1
20260905194529 100 320 3.0 8.0 0.00 0.00 0.00 42 1013.3
20260905194029 99 28 5.0 8.0 0.00 0.00 0.00 44 1013.3
20260905193747 99 41 3.0 8.0 0.00 0.00 0.00 43 1013.2
20260905193250 100 325 5.0 8.0 0.00 0.00 0.00 44 1013.4
20260905192529 99 252 2.0 9.0 0.00 0.00 0.00 45 1013.2
20260905192029 98 29 6.0 15.0 0.00 0.00 0.00 46 1013.4
20260905191529 98 338 6.0 16.0 0.00 0.00 0.00 45 1013.4
20260905191028 100 349 9.0 13.0 0.00 0.00 0.00 44 1013.4
20260905190528 100 283 2.0 8.0 0.00 0.00 0.00 45 1013.2
20260905190029 100 308 2.0 8.0 0.00 0.00 0.00 47 1013.5
20260905185529 99 281 4.0 11.0 0.00 0.00 0.00 45 1013.6
20260905185506 99 283 6.0 11.0 0.00 0.00 0.00 48 1013.6
20260905184528 98 331 3.0 11.0 0.00 0.00 0.00 46 1013.5
20260905184029 99 325 3.0 7.0 0.00 0.00 0.00 44 1013.2
20260905183528 99 284 1.0 13.0 0.00 0.00 0.00 46 1013.6
20260905183028 98 336 4.0 16.0 0.00 0.00 0.00 46 1013.7
20260905182528 98 20 11.0 16.0 0.00 0.00 0.00 47 1013.7
20260905182028 98 346 3.0 8.0 0.00 0.00 0.00 46 1013.7
20260905181529 98 6 4.0 11.0 0.00 0.00 0.00 46 1013.9
20260905181026 98 309 6.0 11.0 0.00 0.00 0.00 47 1013.8
20260905180526 98 310 2.0 8.0 0.00 0.00 0.00 47 1013.9
20260905180025 98 347 3.0 8.0 0.00 0.00 0.00 50 1014.3
20260905175525 97 307 1.0 8.0 0.00 0.00 0.00 47 1014.3
20260905175025 97 294 3.0 8.0 0.00 0.00 0.00 49 1014.4
20260905175017 97 271 2.0 8.0 0.00 0.00 0.00 50 1014.3
20260905174024 96 321 3.0 7.0 0.00 0.00 0.00 50 1014.5
20260905173523 97 292 4.0 8.0 0.00 0.00 0.00 51 1014.5
20260905173023 96 293 0.0 8.0 0.00 0.00 0.00 50 1014.5
20260905172523 97 16 4.0 7.0 0.00 0.00 0.00 53 1014.5
20260905172247 96 29 1.0 7.0 0.00 0.00 0.00 50 1014.6
20260905171526 96 329 2.0 7.0 0.00 0.00 0.00 50 1014.4
20260905171026 96 21 4.0 7.0 0.00 0.00 0.00 50 1014.5
20260905170526 96 54 1.0 4.0 0.00 0.00 0.00 52 1014.5
20260905170027 96 30 2.0 4.0 0.00 0.00 0.00 51 1014.5
20260905165526 95 311 1.0 4.0 0.00 0.00 0.00 53 1014.5
20260905165027 95 31 3.0 7.0 0.00 0.00 0.00 55 1014.7
20260905164527 95 318 3.0 7.0 0.00 0.00 0.00 54 1014.9
20260905164027 95 298 1.0 4.0 0.00 0.00 0.00 54 1014.7
20260905163526 95 329 3.0 3.0 0.00 0.00 0.00 53 1014.8
20260905163252 95 261 1.0 4.0 0.00 0.00 0.00 56 1014.5
20260905162526 95 54 1.0 6.0 0.00 0.00 0.00 56 1014.9
20260905162025 94 46 2.0 6.0 0.00 0.00 0.00 55 1014.8
20260905161522 94 24 4.0 6.0 0.00 0.00 0.00 58 1014.7
20260905161243 94 288 2.0 4.0 0.00 0.00 0.00 57 1014.7
20260905160522 94 287 1.0 4.0 0.00 0.00 0.00 57 1014.7
20260905160023 94 299 1.0 4.0 0.00 0.00 0.00 60 1014.8
20260905155523 93 311 1.0 6.0 0.00 0.00 0.00 61 1014.8
20260905155022 92 183 2.0 6.0 0.00 0.00 0.00 63 1014.6
20260905154522 92 324 0.0 3.0 0.00 0.00 0.00 64 1014.8
20260905154022 92 0 1.0 6.0 0.00 0.00 0.00 63 1014.8
20260905153523 92 273 2.0 7.0 0.00 0.00 0.00 63 1014.7